Kodiak, AK

8:13 PM AKDT on September 30, 2016 (GMT -0800)
Kodiak

Weather History for PADQ - May, 2014

Change the Weather History Date:

Friday, May 2, 2014

  Actual Average Record
Temperature  
Mean Temperature 56 °F 42 °F  
Max Temperature 66 °F 47 °F 66 °F (2014)
Min Temperature 46 °F 36 °F 24 °F (1945)
Degree Days  
Heating Degree Days 9 23  
Month to date heating degree days 29 47  
Since 1 July heating degree days 7052 7739  
Cooling Degree Days 0    
Month to date cooling degree days 0  
Year to date cooling degree days 0  
Growing Degree Days 6 (Base 50)    
Moisture  
Dew Point 34 °F    
Average Humidity 0    
Maximum Humidity 0    
Minimum Humidity 0    
Precipitation  
Precipitation 0.00 in 0.18 in 1.18 in (2008)
Month to date precipitation 0.00 0.36  
Year to date precipitation 32.34 26.13  
Snow  
Snow 0.00 in 0.10 in 2.80 in (1972)
Month to date snowfall 0.0 0.1  
Snow Depth 0.00 in    
Sea Level Pressure  
Sea Level Pressure 30.20 in    
Wind  
Wind Speed 9 mph (NW)    
Max Wind Speed 20 mph    
Max Gust Speed 24 mph    
Visibility 10 miles    
Events      
T = Trace of Precipitation, MM = Missing Value Source: NWS Daily Summary

Daily Weather History Graph

Daily Weather History Graph

Search for Another Location

Airport or City:

Trip Planner

Search our weather history database for the weather conditions in past years. The results will help you decide how hot, cold, wet, or windy it might be!

Date:

Astronomy

May. 02, 2014 Rise Set
Actual Time 6:15 AM AKDT 9:59 PM AKDT
Civil Twilight 5:27 AM AKDT 10:48 PM AKDT
Nautical Twilight 4:17 AM AKDT 11:59 PM AKDT
Astronomical Twilight 2:39 AM AKDT 1:34 AM AKDT
Moon 8:47 AM AKDT (5/2) 12:53 AM AKDT (5/2)
Length of Visible Light 17h 21m
Length of Day
15h 44m
Waxing Crescent, 13% of the Moon is Illuminated
May 2
Waxing Crescent
May 6
First Quarter
May 14
Full
May 21
Last Quarter
May 28
New

Hourly Weather History & Observations

Time (AKDT) Temp. Dew Point Humidity Pressure Visibility Wind Dir Wind Speed Gust Speed Precip Events Conditions
12:53 AM 48.0 °F 34.0 °F 58% 30.37 in 10.0 mi NW 11.5 mph - N/A   Clear
1:53 AM 48.0 °F 33.1 °F 56% 30.35 in 10.0 mi NW 10.4 mph - N/A   Clear
2:53 AM 46.9 °F 32.0 °F 56% 30.33 in 10.0 mi NW 11.5 mph - N/A   Clear
3:53 AM 48.9 °F 30.0 °F 48% 30.30 in 10.0 mi NW 12.7 mph - N/A   Clear
4:53 AM 48.0 °F 28.0 °F 46% 30.28 in 10.0 mi NW 11.5 mph - N/A   Clear
5:53 AM 48.0 °F 28.9 °F 48% 30.26 in 10.0 mi NW 11.5 mph - N/A   Clear
6:53 AM 48.0 °F 30.9 °F 52% 30.24 in 10.0 mi NW 9.2 mph - N/A   Clear
7:53 AM 51.1 °F 32.0 °F 48% 30.23 in 10.0 mi NW 10.4 mph - N/A   Clear
8:53 AM 53.1 °F 32.0 °F 45% 30.21 in 10.0 mi NW 13.8 mph - N/A   Clear
9:53 AM 57.0 °F 32.0 °F 39% 30.19 in 10.0 mi WNW 18.4 mph - N/A   Clear
10:53 AM 59.0 °F 32.0 °F 36% 30.18 in 10.0 mi NW 18.4 mph - N/A   Clear
11:53 AM 61.0 °F 33.1 °F 35% 30.17 in 10.0 mi WNW 12.7 mph 20.7 mph N/A   Clear
12:53 PM 62.1 °F 33.1 °F 34% 30.17 in 10.0 mi West 10.4 mph 19.6 mph N/A   Clear
1:53 PM 64.9 °F 34.0 °F 32% 30.16 in 10.0 mi NW 11.5 mph 16.1 mph N/A   Clear
2:53 PM 60.1 °F 37.0 °F 42% 30.15 in 10.0 mi ESE 10.4 mph - N/A   Clear
3:53 PM 59.0 °F 37.0 °F 44% 30.14 in 10.0 mi ESE 6.9 mph - N/A   Clear
4:53 PM 62.1 °F 37.0 °F 39% 30.14 in 10.0 mi East 8.1 mph - N/A   Clear
5:53 PM 57.9 °F 37.0 °F 46% 30.14 in 10.0 mi SE 5.8 mph - N/A   Clear
6:53 PM 57.0 °F 37.0 °F 47% 30.14 in 10.0 mi ESE 3.5 mph - N/A   Partly Cloudy
7:53 PM 55.0 °F 39.0 °F 55% 30.14 in 10.0 mi NE 4.6 mph - N/A   Partly Cloudy
8:53 PM 54.0 °F 37.9 °F 55% 30.14 in 10.0 mi Calm Calm - N/A   Mostly Cloudy
9:53 PM 51.1 °F 37.9 °F 61% 30.14 in 10.0 mi Calm Calm - N/A   Mostly Cloudy
10:53 PM 48.9 °F 37.9 °F 66% 30.15 in 10.0 mi Calm Calm - N/A   Scattered Clouds
11:53 PM 48.0 °F 39.0 °F 71% 30.14 in 10.0 mi WNW 3.5 mph - N/A   Mostly Cloudy